Regional Weather Roundup
Issued by NWS

Home | Current Version | Previous Version | Graphics & Text | Print | Product List | Glossary On
Versions: 1 2 3 4 5 6 7 8 9 10 11 12 13 14 15 16 17 18 19 20 21 22 23 24 25 26 27 28 29 30 31 32 33 34 35 36 37 38 39 40 41 42 43 44 45 46 47 48 49 50
000
ASUS43 KMPX 311510
RWRMN
WEATHER ROUNDUP FOR MINNESOTA
NATIONAL WEATHER SERVICE TWIN CITIES/CHANHASSEN MN
1000 AM CDT THU JUL 31 2014


NOTE: "FAIR" INDICATES FEW OR NO CLOUDS BELOW 12,000 FEET WITH NO
SIGNIFICANT WEATHER AND/OR OBSTRUCTIONS TO VISIBILITY. N/A MEANS
CURRENT SKY AND/OR WEATHER CONDITIONS ARE NOT AVAILABLE.

MNZ060>063-068>070-311600-
   Twin Cities Metro

CITY           SKY/WX    TMP DP  RH WIND       PRES   REMARKS
TWIN CITIES    MOSUNNY   73  56  54 W6        30.04F
ST PAUL        SUNNY     73  56  54 NW6       30.04S
CRYSTAL        SUNNY     74  56  53 W5        30.03S
BLAINE         CLOUDY    73  59  60 W3        30.03F
LAKEVILLE      SUNNY     72  57  60 W6        30.05S
EDEN PRAIRIE   SUNNY     71  62  73 SW5       30.04S
SOUTH ST PAUL  SUNNY     73  58  57 W5        30.04R
LAKE ELMO      FAIR      72  59  64 NW3       30.04F
$$
MNZ001>005-007-008-013>017-022>024-027-028-311600-
   Northwest Minnesota

CITY           SKY/WX    TMP DP  RH WIND       PRES   REMARKS
BEMIDJI        SUNNY     72  58  61 W8        30.02F
HALLOCK        SUNNY     70  63  78 NW3       30.02S
ROSEAU         SUNNY     70  63  78 NE3       30.02S
WARROAD        SUNNY     72  61  68 CALM      30.02S
THIEF RVR FALL SUNNY     70  63  78 CALM      30.03S
CROOKSTON      SUNNY     68  63  83 NW5       30.03S
FOSSTON        SUNNY     70  61  73 CALM      30.04S
DETROIT LAKES  SUNNY     72  57  60 NW6       30.06S
MOORHEAD       SUNNY     70  64  83 CALM      30.05S
PARK RAPIDS    SUNNY     73  57  57 W10       30.03F
$$
MNZ006-009>011-018-025>026-311600-
   North Central Minnesota

CITY           SKY/WX    TMP DP  RH WIND       PRES   REMARKS
BAUDETTE       SUNNY     72  61  68 N5        30.02S
FLAG ISLAND    MOSUNNY   70  57  64 NW5       30.01S
INTL FALLS     SUNNY     70  58  65 N8        30.00S
WASKISH        SUNNY     68  63  83 CALM      30.01F
BIG FORK       SUNNY     70  61  73 NW2       30.02S
LONGVILLE      SUNNY     72  61  68 W6        30.02F
GRAND RAPIDS   SUNNY     70  61  73 NW6       30.01F
CRANE LAKE     SUNNY     64  57  77 CALM      30.00F
ORR            SUNNY     68  57  68 NW3       29.98S
COOK           SUNNY     66  61  82 W5        30.01S
$$
MNZ012-019>021-037-311600-
   Northeast Minnesota

CITY           SKY/WX    TMP DP  RH WIND       PRES   REMARKS
DULUTH         SUNNY     73  57  57 CALM      30.00S
ELY            SUNNY     64  59  82 NW3       29.99S
HIBBING        SUNNY     73  59  61 NW3       30.00F
EVELETH        SUNNY     72  57  60 W3        30.00S
DULUTH HARBOR  SUNNY     70  63  78 SW3       29.98S
TWO HARBORS    SUNNY     72  57  60 W3        29.96S
SILVER BAY     SUNNY     72  61  68 CALM      29.96S
GRAND MARAIS     N/A     74  52  46 VRB3      29.93F
G MARAIS ARPRT SUNNY     66  50  55 NW5       29.99R
$$
MNZ029>031-032-039>041-046>048-054>057-064-311600-
   West Central Minnesota

CITY           SKY/WX    TMP DP  RH WIND       PRES   REMARKS
FERGUS FALLS   SUNNY     70  59  68 W3        30.05S
WHEATON        SUNNY     70  57  64 W6        30.08S
MORRIS         SUNNY     72  61  68 W5        30.05F
ALEXANDRIA     MOSUNNY   72  57  59 NW5       30.07F
ELBOW LAKE     FAIR      66  59  77 CALM      30.06S
WADENA         SUNNY     72  57  60 NW5       30.04F
GLENWOOD       MOSUNNY   72  61  68 W3        30.07S
APPLETON       SUNNY     73  57  56 NW5       30.06S
BENSON         MOSUNNY   72  61  68 NW3       30.06F
ORTONVILLE     SUNNY     72  55  56 NW5       30.06F
MADISON        SUNNY     75  63  64 CALM      30.07S
WILLMAR        FAIR      72  57  60 W7        30.08S
$$
MNZ033>034-036-042>043-049>051-058-059-311600-
   Central Minnesota

CITY           SKY/WX    TMP DP  RH WIND       PRES   REMARKS
ST CLOUD       MOSUNNY   76  57  51 VRB5      30.04S
SAUK CENTRE    FAIR      69  60  72 CALM      30.06S
PAYNESVILLE    MOSUNNY   68  59  72 CALM      30.06S
AITKIN         SUNNY     73  63  68 W5        30.01S
PINE RIVER     SUNNY     72  57  60 NW5       30.06F
BRAINERD       SUNNY     70  58  65 NW7       30.03F
STAPLES        MOSUNNY   72  55  56 NW8       30.04F
LONG PRAIRIE   FAIR      68  59  73 CALM      30.06S
LITTLE FALLS   MOSUNNY   72  55  56 NW5       30.04S
LITCHFIELD     SUNNY     72  63  73 W3        30.06S
BUFFALO        SUNNY     70  58  64 CALM      30.05F
MAPLE LAKE     MOSUNNY   72  61  67 CALM      30.05F
$$
MNZ037-044-045-052-053-311600-
   East Central Minnesota

CITY           SKY/WX    TMP DP  RH WIND       PRES   REMARKS
PRINCETON      MOSUNNY   73  59  60 W7        30.03F
MORA           SUNNY     70  57  64 NW6       30.04S
CAMBRIDGE      MOSUNNY   75  57  53 W5        30.01S
RUSH CITY      MOSUNNY   73  59  62 CALM      30.02S
MOOSE LAKE     SUNNY     70  61  73 NW6       29.99S
HINCKLEY       FAIR      72  63  73 W6        30.01S
CLOQUET        SUNNY     70  59  68 NW5       30.00S
MCGREGOR       SUNNY     70  61  73 NW6       30.02S
$$
MNZ071>073-080-081-089-090-097-098-311600-
   Southwest Minnesota

CITY           SKY/WX    TMP DP  RH WIND       PRES   REMARKS
MONTEVIDEO     MOSUNNY   75  63  64 N3        30.08S
GRANITE FALLS  SUNNY     70  60  70 W3        30.09S
CANBY          SUNNY     76  52  43 CALM      30.08S
MARSHALL       SUNNY     75  54  46 CALM      30.07S
REDWOOD FALLS  SUNNY     71  58  63 N6        30.07S
OLIVIA         SUNNY     72  59  64 NW5       30.06S
PIPESTONE      PTSUNNY   70  57  64 SW3       30.10S
WINDOM         SUNNY     73  61  64 W3        30.09S
WORTHINGTON    CLOUDY    70  57  64 W3        30.12R
JACKSON        SUNNY     72  59  64 W3        30.10S
TRACY          MOSUNNY   75  56  51 CALM      30.08F
SLAYTON        PTSUNNY   73  53  50 CALM      30.11S
$$
MNZ065>067-074>077-082>085-091>093-311600-
   South Central Minnesota

CITY           SKY/WX    TMP DP  RH WIND       PRES   REMARKS
MANKATO        SUNNY     70  55  60 W6        30.08S
NEW ULM        SUNNY     70  61  73 NW5       30.07S
ST JAMES       SUNNY     77  59  53 SW3       30.08S
FAIRMONT       SUNNY     75  55  50 CALM      30.08S
GLENCOE        SUNNY     73  57  58 W7        30.06S
FARIBAULT      MOSUNNY   75  55  50 W5        30.07S
OWATONNA       SUNNY     70  59  68 W3        30.07F
WASECA         MOSUNNY   72  59  64 SW3       30.09F
ALBERT LEA     SUNNY     73  55  53 W5        30.08S
$$
MNZ078>079-086>088-094>096-311600-
   Southeast Minnesota

CITY           SKY/WX    TMP DP  RH WIND       PRES   REMARKS
ROCHESTER      SUNNY     72  58  61 W8        30.08F
RED WING       SUNNY     72  61  68 W5        30.04R
STANTON        SUNNY     71  59  64 SW5       30.05R
DODGE CENTER   SUNNY     72  57  60 W8        30.08R
WINONA         SUNNY     70  61  73 NW5       30.05S
AUSTIN         SUNNY     70  57  64 NW6       30.08S
PRESTON        SUNNY     70  62  77 W8        30.08S
$$
ABBREVIATIONS USED IN REMARKS
   TC - TEMPERATURES IN CELSIUS
  WCI - WIND CHILL INDEX
   HX - HEAT INDEX
  VSB - VISIBILITY
$$


USA.gov is the U.S. government's official web portal to all federal, state and local government web resources and services.